Location: Unspecified
(52.1384°N, 8.6525°W)
Time: 09:58:49
(UTC+00:00)

XW-2F - Pass Details

Date: 19 January 2021
Orbit: 500 x 519 km, 97.5° (Epoch: 24 February)

Event Time Altitude Azimuth Distance (km) Brightness Sun altitude
Rises 17:38:10 0° 164° (SSE) 2,601 ? -6.1°
Reaches altitude 10° 17:40:14 10° 164° (SSE) 1,724 ? -6.3°
Maximum altitude 17:43:57 88° 79° (E) 520 ? -6.9°
Drops below altitude 10° 17:47:44 10° 347° (NNW) 1,752 ? -7.4°
Sets 17:49:51 0° 347° (NNW) 2,647 ? -7.7°
